Regional Weather Roundup
Issued by NWS

Home | Current Version | Previous Version | Graphics & Text | Print | Product List | Glossary On
Versions: 1 2 3 4 5 6 7 8 9 10 11 12 13 14 15 16 17 18 19 20 21 22 23 24 25 26 27 28
000
ASUS45 KSLC 281010
RWRUT

UTAH REGIONAL WEATHER ROUNDUP
NATIONAL WEATHER SERVICE SALT LAKE CITY UT
400 AM MDT SUN AUG 28 2016

UTZ001>011-023>025-281100-

NORTHERN UTAH

CITY           SKY/WX    TMP DP  RH WIND       PRES   REMARKS
BRIGHAM CITY     N/A     62  34  34 E5        30.08F
HILL AFB         N/A     62  29  28 SE14      30.11S
LOGAN            N/A     50  36  58 SE3       30.10R
OGDEN            N/A     61  29  29 S10       30.09R
PROVO AIRPORT    N/A     57  37  47 SE5       30.14R
SALT LAKE CITY   N/A     68  38  33 SE9       30.07S
VERNAL         CLEAR     54  43  66 NW5       30.18R
WENDOVER         N/A     61  30  31 CALM      30.06R
HEBER CITY       N/A     43  36  75 CALM      30.20R
WEST JORDAN      N/A     66  43  42 S12       30.12R

$$

UTZ012>022-026-027-281100-

SOUTHERN/CENTRAL UTAH

CITY           SKY/WX    TMP DP  RH WIND       PRES   REMARKS
BLANDING         N/A     51  47  86 N8        30.32R
BRYCE CANYON     N/A     44  42  93 CALM      30.34S
CEDAR CITY       N/A     52  44  74 SE5       30.22S
MILFORD          N/A     56  49  77 S14       30.17S
MOAB/CYNLANDS    N/A     66  47  50 CALM      30.15R
PRICE            N/A     54  38  54 CALM      30.23R
ST GEORGE        N/A     64  55  72 SE6       30.12S

$$

REGIONAL REPORTS     COLORADO/ARIZONA

CITY           SKY/WX    TMP DP  RH WIND       PRES   REMARKS
CRAIG, CO      CLOUDY    45  39  79 CALM      30.26R
GRAND JUNCTION CLOUDY    62  48  60 SE9       30.18R
RIFLE          CLOUDY    53  49  86 SE5       30.24R
MONTROSE       CLOUDY    58  45  62 SE7       30.25R
CORTEZ         CLEAR     49  47  93 E6        30.26R
PAGE, AZ         N/A     64  53  67 SW3       30.16S
GRAND CANYON     N/A     47  45  93 CALM      30.28S
KINGMAN          N/A     59  56  89 S3        30.09S
FLAGSTAFF      CLOUDY    49  47  93 CALM      30.29S

$$

REGIONAL REPORTS    NEVADA/IDAHO/WYOMING

CITY           SKY/WX    TMP DP  RH WIND       PRES   REMARKS
LAS VEGAS, NV    N/A     78  49  35 N6        30.00R
ELY              N/A     47  37  68 SE8       30.25R
ELKO             N/A     52  24  33 CALM      30.13R
POCATELLO, ID  CLEAR     57  30  35 N7        30.05R
BURLEY           N/A     52  42  69 SE3       30.02R
EVANSTON, WY   CLOUDY    52  23  32 S9        30.26S
ROCK SPRINGS   CLOUDY    58  22  24 CALM      30.23R

$$




USA.gov is the U.S. government's official web portal to all federal, state and local government web resources and services.